K9BM Weather Reports


time (UTC)temp
F
wind
direction
speed
knots
gust
knots
rain 1hr
in
rain 24hr
in
rain mn
in
humidity
%
barometer
mb
20260906165506 64 334 3.5 8.7 0.00 0.00 0.00 67 1008.9
20260906165006 64 324 3.5 7.0 0.00 0.00 0.00 68 1008.9
20260906164505 63 298 1.7 7.0 0.00 0.00 0.00 70 1009.0
20260906164005 63 304 4.3 7.0 0.00 0.00 0.00 70 1009.0
20260906163506 63 283 2.6 8.7 0.00 0.00 0.00 70 1009.1
20260906163006 63 293 3.5 8.7 0.00 0.00 0.00 69 1009.3
20260906162505 63 302 4.3 7.8 0.00 0.00 0.00 71 1009.3
20260906162005 63 300 4.3 7.8 0.00 0.00 0.00 71 1009.4
20260906161505 62 274 4.3 8.7 0.00 0.00 0.00 71 1009.5
20260906161006 62 299 4.3 8.7 0.00 0.00 0.00 71 1009.5
20260906160005 62 268 4.3 7.0 0.00 0.00 0.00 70 1009.6
20260906155005 61 272 5.2 7.0 0.00 0.00 0.00 72 1009.7
20260906154506 61 254 3.5 6.1 0.00 0.00 0.00 72 1009.8
20260906154006 61 268 2.6 6.1 0.00 0.00 0.00 73 1009.7
20260906153506 61 268 2.6 6.1 0.00 0.00 0.00 74 1009.7
20260906153006 61 253 2.6 4.3 0.00 0.00 0.00 74 1009.8
20260906152005 60 197 0.0 0.0 0.00 0.00 0.00 72 1009.8
20260906151505 60 196 0.0 2.6 0.00 0.00 0.00 72 1009.8
20260906151006 60 196 0.9 2.6 0.00 0.00 0.00 74 1009.8
20260906150005 59 195 0.9 5.2 0.00 0.00 0.00 72 1009.8
20260906144506 57 203 2.6 5.2 0.00 0.00 0.00 71 1010.0
20260906142506 55 227 4.3 7.0 0.00 0.00 0.00 70 1010.0
20260906142006 56 200 4.3 7.0 0.00 0.00 0.00 70 1009.9
20260906141505 56 202 4.3 7.0 0.00 0.00 0.00 70 1009.9
20260906141005 56 213 3.5 7.0 0.00 0.00 0.00 69 1009.8
20260906135507 58 66 0.0 1.7 0.00 0.00 0.00 78 1009.5
20260906135006 57 65 0.0 2.6 0.00 0.00 0.00 78 1009.4
20260906134506 57 66 0.9 2.6 0.00 0.00 0.00 79 1009.3
20260906134005 57 63 1.7 2.6 0.00 0.00 0.00 79 1009.3
20260906133505 56 62 1.7 2.6 0.00 0.00 0.00 78 1009.3
20260906133005 56 62 1.7 4.3 0.00 0.00 0.00 78 1009.3
20260906132505 56 61 2.6 5.2 0.00 0.00 0.00 78 1009.2
20260906132005 56 60 3.5 5.2 0.00 0.00 0.00 78 1009.2
20260906131506 57 61 4.3 6.1 0.00 0.00 0.00 78 1009.3
20260906131005 57 55 4.3 7.0 0.00 0.00 0.00 77 1009.2
20260906130005 57 82 5.2 7.0 0.00 0.00 0.00 76 1009.2
20260906125506 57 81 4.3 7.0 0.00 0.00 0.00 76 1009.3
20260906124505 57 68 2.6 4.3 0.00 0.00 0.00 74 1009.5
20260906124006 57 65 1.7 2.6 0.00 0.00 0.00 73 1009.6
20260906123506 57 64 2.6 2.6 0.00 0.00 0.00 73 1009.6
20260906123006 57 63 1.7 2.6 0.00 0.00 0.00 73 1009.6
20260906122505 57 63 1.7 2.6 0.00 0.00 0.00 73 1009.7
20260906122005 57 63 1.7 2.6 0.00 0.00 0.00 73 1009.7
20260906121505 57 63 1.7 2.6 0.00 0.00 0.00 73 1009.7
20260906121005 57 62 2.6 2.6 0.00 0.00 0.00 74 1009.6
20260906115505 56 61 2.6 2.6 0.00 0.00 0.00 74 1009.6
20260906115006 56 60 0.9 4.3 0.00 0.00 0.00 74 1009.6
20260906114506 56 60 2.6 4.3 0.00 0.00 0.00 74 1009.6
20260906113506 56 61 1.7 5.2 0.00 0.00 0.00 72 1009.7
20260906113006 56 57 4.3 5.2 0.00 0.00 0.00 73 1009.5
20260906112505 55 54 1.7 4.3 0.00 0.00 0.00 73 1009.8
20260906112005 55 54 4.3 4.3 0.00 0.00 0.00 72 1009.5
20260906111506 55 56 2.6 4.3 0.00 0.00 0.00 72 1009.6
20260906111005 55 57 2.6 5.2 0.00 0.00 0.00 72 1009.6
20260906110005 55 47 4.3 4.3 0.00 0.00 0.00 73 1009.7
20260906105505 55 44 4.3 4.3 0.00 0.00 0.00 73 1009.7
20260906105005 55 36 2.6 5.2 0.00 0.00 0.00 72 1009.7
20260906104005 55 42 2.6 5.2 0.00 0.00 0.00 73 1009.8
20260906103506 55 39 2.6 4.3 0.00 0.00 0.00 73 1009.8
20260906103006 55 39 2.6 5.2 0.00 0.00 0.00 73 1009.7
20260906102506 55 42 2.6 5.2 0.00 0.00 0.00 73 1009.7
20260906102006 55 30 2.6 2.6 0.00 0.00 0.00 71 1009.9
20260906101505 55 26 1.7 4.3 0.00 0.00 0.00 69 1009.9
20260906101005 55 27 1.7 6.1 0.00 0.00 0.00 68 1009.9
20260906100006 56 24 1.7 4.3 0.00 0.00 0.00 64 1009.9
20260906095506 56 27 1.7 4.3 0.00 0.00 0.00 62 1009.9
20260906095006 57 25 2.6 4.3 0.00 0.00 0.00 62 1009.9
20260906094505 57 43 2.6 4.3 0.00 0.00 0.00 61 1009.9
20260906094005 57 49 2.6 4.3 0.00 0.00 0.00 59 1009.9
20260906093506 58 54 1.7 2.6 0.00 0.00 0.00 58 1010.0
20260906093005 58 55 1.7 2.6 0.00 0.00 0.00 57 1010.0
20260906092005 58 56 2.6 4.3 0.00 0.00 0.00 57 1010.1
20260906091005 58 52 1.7 4.3 0.00 0.00 0.00 57 1010.1
20260906090006 58 63 2.6 4.3 0.00 0.00 0.00 57 1010.2
20260906085505 58 61 1.7 5.2 0.00 0.00 0.00 57 1010.1
20260906085006 58 58 3.5 5.2 0.00 0.00 0.00 58 1010.0
20260906084506 58 54 3.5 5.2 0.00 0.00 0.00 58 1009.9
20260906084006 58 56 2.6 5.2 0.00 0.00 0.00 57 1010.0
20260906083505 58 57 2.6 5.2 0.00 0.00 0.00 57 1009.9
20260906083005 58 35 2.6 4.3 0.00 0.00 0.00 57 1010.1
20260906082505 58 29 2.6 5.2 0.00 0.00 0.00 57 1010.2
20260906082005 58 32 3.5 5.2 0.00 0.00 0.00 56 1010.1
20260906081505 59 30 4.3 6.1 0.00 0.00 0.00 56 1010.1
20260906081005 59 45 3.5 7.8 0.00 0.00 0.00 55 1010.3
20260906080005 59 45 4.3 7.0 0.00 0.00 0.00 55 1010.2
20260906075505 59 40 3.5 7.0 0.00 0.00 0.00 54 1010.2
20260906075005 59 27 4.3 7.0 0.00 0.00 0.00 54 1010.1
20260906074505 60 27 3.5 6.1 0.00 0.00 0.00 53 1010.2
20260906074005 60 77 2.6 4.3 0.00 0.00 0.00 52 1010.3
20260906073505 60 78 1.7 4.3 0.00 0.00 0.00 52 1010.5
20260906073005 61 79 1.7 2.6 0.00 0.00 0.00 51 1010.5
20260906072505 61 79 1.7 2.6 0.00 0.00 0.00 50 1010.5
20260906071505 61 80 2.6 4.3 0.00 0.00 0.00 51 1010.5
20260906071005 61 81 1.7 2.6 0.00 0.00 0.00 51 1010.6
20260906070005 61 83 1.7 4.3 0.00 0.00 0.00 49 1010.6
20260906065505 62 85 2.6 6.1 0.00 0.00 0.00 49 1010.6
20260906065005 62 85 4.3 6.1 0.00 0.00 0.00 49 1010.6
20260906064505 61 89 2.6 6.1 0.00 0.00 0.00 50 1010.6
20260906064005 61 81 2.6 5.2 0.00 0.00 0.00 50 1010.6
20260906063505 61 92 2.6 5.2 0.00 0.00 0.00 51 1010.7
20260906063005 61 95 1.7 5.2 0.00 0.00 0.00 51 1010.6
20260906061505 61 95 3.5 5.2 0.00 0.00 0.00 50 1010.6
20260906061005 61 89 4.3 5.2 0.00 0.00 0.00 49 1010.6
20260906055505 62 83 1.7 4.3 0.00 0.00 0.00 47 1010.5
20260906055005 63 83 2.6 7.0 0.00 0.00 0.00 46 1010.4
20260906054505 63 76 3.5 7.8 0.00 0.00 0.00 45 1010.3
20260906054005 63 53 5.2 7.8 0.00 0.00 0.00 45 1010.4
20260906052505 64 69 1.7 5.2 0.00 0.00 0.00 44 1010.4
20260906052005 64 61 3.5 5.2 0.00 0.00 0.00 44 1010.5
20260906051505 64 56 4.3 5.2 0.00 0.00 0.00 44 1010.5
20260906051005 64 59 2.6 4.3 0.00 0.00 0.00 44 1010.6
20260906050005 64 59 3.5 4.3 0.00 0.00 0.00 43 1010.7
20260906045505 65 60 2.6 5.2 0.00 0.00 0.00 43 1010.6
20260906045005 65 62 4.3 5.2 0.00 0.00 0.00 42 1010.6
20260906044505 65 66 2.6 4.3 0.00 0.00 0.00 42 1010.6
20260906044005 65 76 1.7 2.6 0.00 0.00 0.00 42 1010.5
20260906043505 65 76 2.6 2.6 0.00 0.00 0.00 42 1010.6
20260906043005 65 78 1.7 7.0 0.00 0.00 0.00 41 1010.5
20260906042505 66 79 2.6 7.0 0.00 0.00 0.00 41 1010.6
20260906042005 66 80 3.5 6.1 0.00 0.00 0.00 41 1010.5
20260906041505 66 64 2.6 7.0 0.00 0.00 0.00 41 1010.5
20260906035506 66 62 5.2 7.0 0.00 0.00 0.00 40 1010.4
20260906035005 66 79 2.6 4.3 0.00 0.00 0.00 40 1010.4
20260906034005 66 66 3.5 7.0 0.00 0.00 0.00 40 1010.3
20260906033505 66 59 4.3 5.2 0.00 0.00 0.00 40 1010.3
20260906033006 66 56 2.6 5.2 0.00 0.00 0.00 40 1010.3
20260906032505 66 56 3.5 4.3 0.00 0.00 0.00 40 1010.3
20260906031505 67 58 2.6 6.1 0.00 0.00 0.00 39 1010.2
20260906030005 67 59 2.6 4.3 0.00 0.00 0.00 40 1010.0
20260906025505 68 61 1.7 6.1 0.00 0.00 0.00 39 1010.0
20260906025007 68 58 3.5 6.1 0.00 0.00 0.00 39 1009.9
20260906024505 68 55 1.7 6.1 0.00 0.00 0.00 38 1009.9
20260906024005 69 53 2.6 6.1 0.00 0.00 0.00 38 1009.7
20260906023505 69 90 4.3 8.7 0.00 0.00 0.00 38 1009.5
20260906023005 69 100 4.3 8.7 0.00 0.00 0.00 38 1009.5
20260906022505 69 96 6.1 8.7 0.00 0.00 0.00 37 1009.4
20260906022005 69 100 6.1 8.7 0.00 0.00 0.00 37 1009.5
20260906020004 71 106 7.0 10.4 0.00 0.00 0.00 35 1009.3
20260906015505 71 101 6.1 11.3 0.00 0.00 0.00 34 1009.2
20260906015005 72 103 8.7 11.3 0.00 0.00 0.00 34 1009.1
20260906014505 72 98 8.7 11.3 0.00 0.00 0.00 33 1009.0
20260906014005 73 107 8.7 13.9 0.00 0.00 0.00 33 1009.0
20260906013505 73 103 9.6 13.9 0.00 0.00 0.00 32 1009.0
20260906013005 74 107 8.7 13.0 0.00 0.00 0.00 31 1008.9
20260906012005 75 95 8.7 13.0 0.00 0.00 0.00 30 1008.8
20260906011505 75 98 7.8 13.0 0.00 0.00 0.00 29 1008.8
20260906011005 76 85 8.7 13.9 0.00 0.00 0.00 28 1008.8
20260906010004 76 87 7.8 13.9 0.00 0.00 0.00 27 1008.8
20260906005505 76 84 10.4 13.9 0.00 0.00 0.00 27 1008.7
20260906005005 76 87 8.7 13.9 0.00 0.00 0.00 27 1008.7
20260906004505 77 63 7.8 13.0 0.00 0.00 0.00 27 1008.7
20260906004005 77 77 9.6 13.0 0.00 0.00 0.00 27 1008.6
20260906003005 77 71 9.6 14.8 0.00 0.00 0.00 26 1008.6
20260906002505 77 49 8.7 12.2 0.00 0.00 0.00 26 1008.6
20260906002006 78 57 7.8 12.2 0.00 0.00 0.00 26 1008.6
20260906001505 78 84 7.8 10.4 0.00 0.00 0.00 26 1008.6
20260906001005 78 88 7.8 13.9 0.00 0.00 0.00 26 1008.7
20260906000005 78 85 7.8 13.9 0.00 0.00 0.00 26 1008.7
20260905235505 78 89 9.6 13.0 0.00 0.00 0.00 26 1008.7
20260905235005 78 70 7.8 13.9 0.00 0.00 0.00 26 1008.7
20260905234505 78 108 10.4 15.6 0.00 0.00 0.00 26 1008.6
20260905234005 77 85 7.8 15.6 0.00 0.00 0.00 26 1008.7
20260905233505 78 59 6.1 12.2 0.00 0.00 0.00 25 1008.6
20260905233005 78 100 7.8 13.9 0.00 0.00 0.00 25 1008.6
20260905232005 79 106 11.3 13.9 0.00 0.00 0.00 25 1008.6
20260905231505 78 85 7.0 13.9 0.00 0.00 0.00 25 1008.6
20260905231005 78 105 11.3 13.9 0.00 0.00 0.00 25 1008.5
20260905230005 78 93 8.7 13.9 0.00 0.00 0.00 26 1008.6
20260905225505 79 72 4.3 12.2 0.00 0.00 0.00 25 1008.6
20260905225005 79 81 7.0 14.8 0.00 0.00 0.00 25 1008.6
20260905224004 78 94 10.4 14.8 0.00 0.00 0.00 26 1008.6
20260905223505 77 84 7.8 15.6 0.00 0.00 0.00 26 1008.6
20260905223005 77 79 4.3 15.6 0.00 0.00 0.00 26 1008.6
20260905222505 77 81 7.8 15.6 0.00 0.00 0.00 27 1008.6
20260905222005 76 80 7.0 12.2 0.00 0.00 0.00 27 1008.7
20260905221505 76 57 6.1 13.9 0.00 0.00 0.00 28 1008.8
20260905221005 75 69 8.7 13.9 0.00 0.00 0.00 28 1008.8
20260905220005 76 59 7.8 12.2 0.00 0.00 0.00 28 1008.8
20260905215505 75 75 8.7 12.2 0.00 0.00 0.00 29 1008.9
20260905215004 75 50 8.7 13.0 0.00 0.00 0.00 29 1009.0
20260905214505 75 79 7.8 13.0 0.00 0.00 0.00 29 1009.0
20260905214005 75 89 7.0 11.3 0.00 0.00 0.00 29 1008.9
20260905213505 75 80 9.6 13.0 0.00 0.00 0.00 29 1009.0
20260905213005 75 95 7.8 17.4 0.00 0.00 0.00 29 1008.9
20260905212505 75 97 12.2 17.4 0.00 0.00 0.00 29 1008.9
20260905212005 75 68 7.0 12.2 0.00 0.00 0.00 29 1009.0
20260905211505 75 35 5.2 14.8 0.00 0.00 0.00 29 1009.0
20260905211005 76 60 8.7 14.8 0.00 0.00 0.00 28 1008.9
20260905210004 76 85 10.4 14.8 0.00 0.00 0.00 28 1009.1
20260905205505 77 96 8.7 15.6 0.00 0.00 0.00 27 1009.1
20260905205005 78 103 8.7 15.6 0.00 0.00 0.00 27 1009.0
20260905204504 78 94 5.2 15.6 0.00 0.00 0.00 27 1008.9
20260905203505 76 86 10.4 15.6 0.00 0.00 0.00 29 1009.1
20260905202505 75 57 10.4 14.8 0.00 0.00 0.00 30 1009.2
20260905202005 76 55 10.4 14.8 0.00 0.00 0.00 29 1009.3
20260905201504 75 105 7.8 12.2 0.00 0.00 0.00 30 1009.4
20260905201005 75 53 7.0 13.9 0.00 0.00 0.00 30 1009.4
20260905200004 74 101 8.7 14.8 0.00 0.00 0.00 31 1009.4
20260905195505 73 57 8.7 17.4 0.00 0.00 0.00 31 1009.3
20260905195005 73 69 11.3 17.4 0.00 0.00 0.00 31 1009.4
20260905194505 73 78 10.4 17.4 0.00 0.00 0.00 31 1009.5
20260905194005 74 53 7.8 13.9 0.00 0.00 0.00 31 1009.5
20260905193505 74 53 7.8 14.8 0.00 0.00 0.00 30 1009.5
20260905192504 74 70 10.4 14.8 0.00 0.00 0.00 32 1009.6
20260905191504 72 76 7.8 17.4 0.00 0.00 0.00 32 1009.6
20260905191005 73 48 8.7 17.4 0.00 0.00 0.00 31 1009.5
20260905190005 72 55 5.2 13.9 0.00 0.00 0.00 32 1009.7
20260905185505 72 78 10.4 17.4 0.00 0.00 0.00 32 1009.8
20260905184505 72 63 7.8 14.8 0.00 0.00 0.00 32 1009.8
20260905184005 73 62 7.8 15.6 0.00 0.00 0.00 31 1009.9
20260905183505 73 95 11.3 15.6 0.00 0.00 0.00 32 1010.0
20260905183005 72 75 8.7 17.4 0.00 0.00 0.00 32 1010.0
20260905182504 72 86 8.7 17.4 0.00 0.00 0.00 32 1010.1
20260905182005 72 86 11.3 15.6 0.00 0.00 0.00 32 1010.1
20260905181505 72 98 6.1 17.4 0.00 0.00 0.00 33 1010.2
20260905181005 70 105 11.3 17.4 0.00 0.00 0.00 34 1010.1
20260905180004 71 74 10.4 14.8 0.00 0.00 0.00 33 1010.4
20260905175505 70 93 8.7 14.8 0.00 0.00 0.00 34 1010.4
20260905175004 70 77 9.6 14.8 0.00 0.00 0.00 34 1010.4
20260905174004 70 85 8.7 13.9 0.00 0.00 0.00 35 1010.4
20260905173505 69 85 8.7 13.9 0.00 0.00 0.00 36 1010.4
20260905173005 68 89 7.8 14.8 0.00 0.00 0.00 38 1010.4
20260905172004 67 52 7.0 14.8 0.00 0.00 0.00 38 1010.5
20260905171004 66 58 7.8 13.0 0.00 0.00 0.00 40 1010.6
20260905170005 66 53 8.7 13.0 0.00 0.00 0.00 39 1010.7